Showing default

FLOCK 4BE 10, 60503

Orbit data source: Space-Track

FLOCK 4BE 10, 60503 is a payload satellite owned by Planet (US) in SSO that was launched on Fri, 16 Aug 2024 UTC via an FALCON 9 launch vehicle from the Air Force Western Test Range (AFWTR). Payload-class satellites include a variety of spacecraft equipped with specific instruments for various scientific and technological missions. These include communications satellites like Starlink; space stations such as the ISS; scientific satellites like the Hubble; Earth observation satellites from companies like Planet Labs, Umbra, and HawkEye 360; GPS; miniature CubeSats for education and research; and military/defense satellites.

Loading next visibility...
Identifier
60503, 2024-149AM
Orbit
SSO
Country
Flag of USUS
Related business
Manufacturer
Planet
Mission
Operational Commercial Imaging
Bus & Motor
CUBESAT 3U, Unknown motor
Mass
5.7 kg wet, 5.7 kg dry
Launch date (UTC)
2024-08-16 (1 year ago)
Launch vehicle
FALCON 9
Launch site
Air Force Western Test Range (AFWTR)
Object type
Payload
Rocket body
Debris
Shape & HBR
Box + 2 Pan, 1.0 m
Radar Cross Section
0.072 m², Medium (>0.1 m² and < 1m²)

Expand to show TLE details & history
Last TLE update: 22 hours ago

TLE from 22 hours ago
0 FLOCK 4BE 10
1 60503U 24149AM  25352.17729971  .00080951  00000-0  17372-2 0  9999
2 60503  97.3941  70.4236 0004264 205.6465 154.4572 15.44412714 74502
Epoch: 2025-12-18T04:15Z
TLE epoch observation values (Epoch: 2025-12-18T04:15:18.694Z)
Latitude
-0.0001°
Longitude
-80.44083°
Altitude
438.849 km
Speed
7.647 km/s
True Right ascension
04h 41m 41s
True Declination
0° 00' 00"
Sunlit
Object was in full shadow at epoch
Visualization orbit readout
Latitude
Unknown
Longitude
Unknown
Altitude
Unknown
Speed
Unknown
Apparent Right ascension
Unknown
Apparent Declination
Unknown
Sunlit
N/A
Visualization observer readout
Local Sidereal Time
01:30:18
Azimuth
Unknown
Elevation
Unknown
Doppler factor
Unknown
Orbital elements
Apogee altitude
432.94 km
Perigee altitude
427.134 km
Semi-major axis
6,808.174 km
Eccentricity
0.00043
Inclination
97.3941°
RAAN
70.4236°
Arg. of periapsis
205.6465°
True anomaly
154.47826°
Mean anomaly
154.4572°
Eccentric anomaly
154.46773°
Mean motion
3.86364 °/min
Orbital period
93.18 mins
BSTAR
0.0017372
Loading maneuver chart data...
Computing Atmospheric mass density...
Loading historical data...
Loading historical data...
Loading historical data...
Loading historical data...
Loading historical data...
Loading historical data...
Loading historical data...

Documentation

Showing up to 5 results
|